SM4TUV Weather Reports


Display with metric or nautical units.
time (UTC)temp
F
wind
direction
speed
MPH
gust
MPH
rain 1hr
in
rain 24hr
in
rain mn
in
humidity
%
barometer
mb
20260904204531 51 66 4.0 5.0 0.00 0.00 0.00 84 964.2
20260904203631 51 51 4.0 7.0 0.00 0.00 0.00 84 964.2
20260904201831 52 57 5.0 6.0 0.00 0.00 0.00 83 964.2
20260904200932 52 97 3.0 6.0 0.00 0.00 0.00 82 964.2
20260904200031 52 89 3.0 5.0 0.00 0.00 0.00 82 964.2
20260904194232 53 75 4.0 5.0 0.00 0.00 0.00 82 964.1
20260904192432 53 66 4.0 5.0 0.00 0.00 0.00 81 963.9
20260904191531 53 70 4.0 5.0 0.00 0.00 0.00 81 964.2
20260904190631 53 54 3.0 4.0 0.00 0.00 0.00 80 964.3
20260904185731 53 60 3.0 5.0 0.00 0.00 0.00 80 964.1
20260904184831 53 38 3.0 4.0 0.00 0.00 0.00 80 964.2
20260904183932 53 54 2.0 3.0 0.00 0.00 0.00 78 964.1
20260904183031 54 79 2.0 3.0 0.00 0.00 0.00 78 964.2
20260904182131 54 60 3.0 4.0 0.00 0.00 0.00 77 964.2
20260904180331 55 59 4.0 4.0 0.00 0.00 0.00 75 964.3
20260904175431 55 73 4.0 4.0 0.00 0.00 0.00 75 964.2
20260904174531 55 86 3.0 4.0 0.00 0.00 0.00 74 964.1
20260904173631 55 74 3.0 4.0 0.00 0.00 0.00 73 964.1
20260904172731 56 65 3.0 4.0 0.00 0.00 0.00 73 964.1
20260904171831 56 67 4.0 5.0 0.00 0.00 0.00 72 964.1
20260904170931 56 49 4.0 5.0 0.00 0.00 0.00 72 964.2
20260904170031 56 61 4.0 5.0 0.00 0.00 0.00 72 964.3
20260904165131 57 62 4.0 5.0 0.00 0.00 0.00 72 964.3
20260904164231 58 57 4.0 5.0 0.00 0.00 0.00 70 964.2
20260904163331 58 37 4.0 4.0 0.00 0.00 0.00 70 964.3
20260904161531 59 72 2.0 3.0 0.00 0.00 0.00 66 964.4
20260904160631 60 82 3.0 3.0 0.00 0.00 0.00 63 964.3
20260904155731 60 37 4.0 5.0 0.00 0.00 0.00 62 964.3
20260904154831 61 42 3.0 4.0 0.00 0.00 0.00 61 964.4
20260904153932 62 21 3.0 5.0 0.00 0.00 0.00 61 964.6
20260904153031 62 52 3.0 5.0 0.00 0.00 0.00 59 964.4
20260904152131 62 108 2.0 3.0 0.00 0.00 0.00 54 964.4
20260904151231 62 100 4.0 4.0 0.00 0.00 0.00 54 964.7
20260904150334 63 91 4.0 6.0 0.00 0.00 0.00 51 964.7
20260904144531 66 176 3.0 6.0 0.00 0.00 0.00 48 964.8
20260904143631 67 74 3.0 4.0 0.00 0.00 0.00 54 964.7
20260904142731 66 307 2.0 4.0 0.00 0.00 0.00 53 964.8
20260904141831 65 176 3.0 4.0 0.00 0.00 0.00 53 964.7
20260904140931 64 255 3.0 4.0 0.00 0.00 0.00 58 964.8
20260904140031 64 292 2.0 4.0 0.00 0.00 0.00 58 964.9
20260904135131 64 191 4.0 6.0 0.00 0.00 0.00 59 965.0
20260904134232 63 222 4.0 5.0 0.00 0.00 0.00 60 965.1
20260904133331 64 278 4.0 6.0 0.00 0.00 0.00 59 965.2
20260904131531 64 275 6.0 9.0 0.00 0.00 0.00 58 965.2
20260904130631 66 307 5.0 5.0 0.00 0.00 0.00 55 965.2
20260904125731 66 271 3.0 7.0 0.00 0.00 0.00 57 965.3
20260904124831 65 201 3.0 5.0 0.00 0.00 0.00 60 965.4
20260904123932 62 232 4.0 5.0 0.00 0.00 0.00 64 965.4
20260904123031 61 278 4.0 5.0 0.00 0.00 0.00 66 965.6
20260904121231 59 275 4.0 6.0 0.00 0.00 0.00 67 965.7
20260904120331 59 237 5.0 7.0 0.00 0.00 0.00 66 965.9
20260904115432 60 245 3.0 4.0 0.00 0.00 0.00 66 966.1
20260904114531 59 286 4.0 5.0 0.00 0.00 0.00 66 966.0
20260904113631 59 283 4.0 6.0 0.00 0.00 0.00 67 966.1
20260904112731 59 274 3.0 4.0 0.00 0.00 0.00 67 966.2
20260904111831 59 307 4.0 6.0 0.00 0.00 0.00 67 966.4
20260904110931 59 331 4.0 4.0 0.00 0.00 0.00 68 966.4
20260904110031 59 291 3.0 5.0 0.00 0.00 0.00 65 966.6
20260904105131 59 272 3.0 5.0 0.00 0.00 0.00 67 966.7
20260904104231 58 255 5.0 6.0 0.00 0.00 0.00 67 966.7
20260904103331 58 269 4.0 6.0 0.00 0.00 0.00 68 966.8
20260904102431 57 262 4.0 6.0 0.00 0.00 0.00 70 967.0
20260904101531 57 295 4.0 4.0 0.00 0.00 0.00 70 967.0
20260904100631 57 302 4.0 5.0 0.00 0.00 0.00 70 967.2
20260904095732 57 256 3.0 4.0 0.00 0.00 0.00 70 967.2
20260904094831 57 218 3.0 4.0 0.00 0.00 0.00 70 967.3
20260904093932 57 278 3.0 4.0 0.00 0.00 0.00 70 967.3
20260904093031 57 256 2.0 4.0 0.00 0.00 0.00 69 967.3
20260904092131 57 281 2.0 3.0 0.00 0.00 0.00 69 967.3
20260904091231 57 322 1.0 2.0 0.00 0.00 0.00 70 967.5
20260904090331 56 343 2.0 3.0 0.00 0.00 0.00 70 967.5
20260904084531 56 353 3.0 4.0 0.00 0.00 0.00 69 967.5
20260904083631 57 39 2.0 4.0 0.00 0.00 0.00 69 967.5
20260904082731 57 14 3.0 4.0 0.00 0.00 0.00 68 967.5
20260904081831 57 15 3.0 4.0 0.00 0.00 0.00 67 967.6
20260904080031 57 26 4.0 4.0 0.00 0.00 0.00 68 967.8
20260904075131 58 39 3.0 3.0 0.00 0.00 0.00 69 967.9
20260904073331 56 12 2.0 3.0 0.00 0.00 0.00 71 967.9
20260904072431 56 14 1.0 2.0 0.00 0.00 0.00 71 968.0
20260904071531 54 59 3.0 4.0 0.00 0.00 0.00 72 968.0
20260904070632 52 82 4.0 4.0 0.00 0.00 0.00 75 968.1
20260904065731 52 49 3.0 4.0 0.00 0.00 0.00 75 968.1
20260904064831 50 41 2.0 3.0 0.00 0.00 0.00 77 968.2
20260904063931 51 342 1.0 2.0 0.00 0.00 0.00 82 968.3
20260904063031 46 356 2.0 3.0 0.00 0.00 0.00 83 968.3
20260904062131 45 54 3.0 4.0 0.00 0.00 0.00 84 968.2
20260904061231 44 82 2.0 3.0 0.00 0.00 0.00 83 968.4
20260904060331 44 76 1.0 2.0 0.00 0.00 0.00 83 968.4
20260904055432 44 38 2.0 3.0 0.00 0.00 0.00 83 968.4
20260904054531 44 42 3.0 4.0 0.00 0.00 0.00 82 968.4
20260904052731 46 74 4.0 5.0 0.00 0.00 0.00 80 968.3
20260904051831 45 60 4.0 4.0 0.00 0.00 0.00 82 968.4
20260904050932 45 82 4.0 4.0 0.00 0.00 0.00 83 968.4
20260904050031 44 79 4.0 5.0 0.00 0.00 0.00 85 968.3
20260904045131 43 69 4.0 6.0 0.00 0.00 0.00 87 968.4
20260904044232 42 61 4.0 4.0 0.00 0.00 0.00 87 968.5
20260904043331 42 61 4.0 7.0 0.00 0.00 0.00 87 968.5
20260904042431 42 82 5.0 7.0 0.00 0.00 0.00 87 968.4
20260904041531 41 87 5.0 6.0 0.00 0.00 0.00 87 968.5
20260904040631 41 86 5.0 5.0 0.00 0.00 0.00 87 968.5
20260904035731 41 52 3.0 4.0 0.00 0.00 0.00 86 968.5
20260904034831 42 35 4.0 5.0 0.00 0.00 0.00 86 968.5
20260904033932 43 70 4.0 4.0 0.00 0.00 0.00 86 968.6
20260904032131 42 90 3.0 4.0 0.00 0.00 0.00 86 968.6
20260904030331 43 52 4.0 5.0 0.00 0.00 0.00 86 968.9
20260904025432 43 68 4.0 5.0 0.00 0.00 0.00 86 968.9
20260904024531 43 85 4.0 5.0 0.00 0.00 0.00 86 968.9
20260904023631 43 81 4.0 5.0 0.00 0.00 0.00 86 969.1
20260904022731 42 90 4.0 6.0 0.00 0.00 0.00 86 969.1
20260904021831 42 79 5.0 7.0 0.00 0.00 0.00 85 969.1
20260904020031 43 68 4.0 6.0 0.00 0.00 0.00 85 969.3
20260904015131 43 90 4.0 7.0 0.00 0.00 0.00 85 969.3
20260904014231 44 94 4.0 5.0 0.00 0.00 0.00 85 969.3
20260904013331 44 102 4.0 5.0 0.00 0.00 0.00 86 969.4
20260904012432 43 98 4.0 4.0 0.00 0.00 0.00 86 969.4
20260904011531 43 92 4.0 4.0 0.00 0.00 0.00 86 969.4
20260904010631 44 88 4.0 4.0 0.00 0.00 0.00 84 969.5
20260904005732 44 81 3.0 3.0 0.00 0.00 0.00 84 969.6
20260904004831 44 82 1.0 3.0 0.00 0.00 0.00 84 969.9
20260904003932 45 90 1.0 2.0 0.00 0.00 0.00 83 969.8
20260904003031 45 106 2.0 3.0 0.00 0.00 0.00 84 969.9
20260904002131 45 85 1.0 2.0 0.00 0.00 0.00 83 969.9
20260904001232 45 83 2.0 3.0 0.00 0.00 0.00 83 970.0
20260904000333 46 70 2.0 3.0 0.00 0.00 0.00 83 970.1
20260903235431 46 91 3.0 4.0 0.00 0.00 0.00 83 970.0
20260903234531 45 92 2.0 4.0 0.00 0.00 0.00 83 970.3
20260903232732 45 71 2.0 4.0 0.00 0.00 0.00 83 970.3
20260903231831 46 97 3.0 5.0 0.00 0.00 0.00 83 970.2
20260903230931 46 164 3.0 3.0 0.00 0.00 0.00 82 970.2
20260903230031 47 99 4.0 4.0 0.00 0.00 0.00 82 970.3
20260903225131 47 94 3.0 4.0 0.00 0.00 0.00 81 970.3
20260903224231 48 56 2.0 2.0 0.00 0.00 0.00 81 970.4
20260903223331 48 67 2.0 3.0 0.00 0.00 0.00 80 970.4
20260903222432 48 65 2.0 2.0 0.00 0.00 0.00 80 970.5
20260903221531 49 43 3.0 4.0 0.00 0.00 0.00 80 970.5
20260903220631 49 52 3.0 4.0 0.00 0.00 0.00 79 970.5
20260903215731 49 109 3.0 3.0 0.00 0.00 0.00 79 970.6
20260903214831 49 104 3.0 4.0 0.00 0.00 0.00 79 970.5
20260903213932 49 90 3.0 3.0 0.00 0.00 0.00 79 970.6
20260903213031 49 81 2.0 3.0 0.00 0.00 0.00 79 970.6
20260903212131 49 87 3.0 4.0 0.00 0.00 0.00 78 970.7
20260903211231 50 78 3.0 4.0 0.00 0.00 0.00 78 970.6
20260903210331 50 84 3.0 3.0 0.00 0.00 0.00 77 970.6
20260903205432 50 81 3.0 4.0 0.00 0.00 0.00 77 970.6